Hourly Weather Roundup
Issued by NWS Central Illinois

Home | Current Version | Previous Version | Text Only | Print | Product List | Glossary On
Versions: 1 2 3 4 5 6 7 8 9 10 11 12 13 14 15 16 17 18 19 20 21 22 23 24 25 26 27 28 29 30 31 32 33 34 35 36 37 38 39 40 41 42 43 44 45 46 47 48 49 50
937
NZUS43 KILX 010610
HWRILX

AREA WEATHER ROUNDUP
NATIONAL WEATHER SERVICE, LINCOLN IL
100 AM CDT SUN MAY 01 2016


CITY           SKY/WX    TMP DP  RH WIND       PRES   REMARKS
BLOOMINGTON    FOG       50  50 100 NE12      29.87R VSB 1/4
6HR MIN TEMP:  50; 6HR MAX TEMP:  59; 6HR PCP: TRACE;

CHAMPAIGN      FOG       57  57 100 E7        29.83S VSB 1/4
6HR MIN TEMP:  54; 6HR MAX TEMP:  61;

DANVILLE       CLOUDY    56  56  99 CALM      29.82F FOG
6HR MIN TEMP:  55; 6HR MAX TEMP:  58;

DECATUR        CLOUDY    62  55  77 S9        29.82F
6HR MIN TEMP:  57; 6HR MAX TEMP:  65;

EFFINGHAM      RAIN      60  55  83 SW12      29.89R
FLORA          RAIN      61  56  84 W14       29.91S
6HR MIN TEMP:  60; 6HR MAX TEMP:  71; 6HR PCP:  0.21;

GALESBURG      CLOUDY    46  46  99 NE8       29.90R FOG
JACKSONVILLE   FOG       57  56  96 N5        29.86R VSB 1/2
6HR MIN TEMP:  57; 6HR MAX TEMP:  66; 6HR PCP:  0.01;

LACON          CLOUDY    47  46  97 NE3       29.89S FOG
6HR MIN TEMP:  47; 6HR MAX TEMP:  49;

LAWRENCEVILLE  CLOUDY    63  63 100 SW6         N/A  FOG
6HR MIN TEMP:  63; 6HR MAX TEMP:  67; 6HR PCP:  0.06;

LITCHFIELD     CLOUDY    57  54  89 S7        29.86F
$$


CITY           SKY/WX    TMP DP  RH WIND       PRES   REMARKS
LINCOLN        FOG       54  54 100 N6        29.85R VSB 1
6HR MIN TEMP:  54; 6HR MAX TEMP:  65;

MACOMB         FOG       49  49 100 NE9       29.90R VSB 3/4
MATTOON        CLOUDY    63  59  87 S8        29.83F
6HR MIN TEMP:  61; 6HR MAX TEMP:  65;

MT CARMEL AP   NOT AVBL
OLNEY-NOBLE AP LGT RAIN  61  55  82 W10G16    29.90R
PARIS          MOCLDY    62  62  99 S8        29.85F
6HR MIN TEMP:  60; 6HR MAX TEMP:  65;

PEORIA         CLOUDY    49  47  93 NE14      29.87S FOG
6HR MIN TEMP:  49; 6HR MAX TEMP:  53;

PONTIAC        CLOUDY    49  49 100 NE12      29.88R FOG
RANTOUL        DRZL/FOG  55  55  99 E7        29.83F VSB 1/2
6HR MIN TEMP:  55; 6HR MAX TEMP:  60;

ROBINSON       FOG       60  60 100 S5        29.88S VSB 1/2
6HR MIN TEMP:  58; 6HR MAX TEMP:  66; 6HR PCP:  0.12;

SPRINGFIELD    FOG       57  56  96 N8        29.85R VSB 1/2
6HR MIN TEMP:  57; 6HR MAX TEMP:  68; 6HR PCP:  0.05;

TAYLORVILLE    CLOUDY    61  54  77 S20       29.85R
$$

...REGIONAL REPORTS...


CITY           SKY/WX    TMP DP  RH WIND       PRES   REMARKS
CHICAGO O`HARE DRIZZLE   45  44  97 NE10      29.91S FOG
KANKAKEE       CLOUDY    48  47  97 NE8       29.88S FOG
MOLINE         CLOUDY    47  44  90 NE13      29.92R
MOUNT STERLING CLOUDY    53  53 100 NE7       29.86R FOG
MOUNT VERNON   CLOUDY    57  54  88 CALM      29.92F
PITTSFIELD     PTCLDY    54  53  99 NW3       29.86S
QUINCY         FOG       54  53  97 NE10      29.85S VSB 3/4
ROCKFORD       CLOUDY    47  44  90 NE12      29.96R
$$


CITY           SKY/WX    TMP DP  RH WIND       PRES   REMARKS
BURLINGTON     CLOUDY    47  47 100 NE12      29.89R FOG
CEDAR RAPIDS   LGT RAIN  44  44 100 NE12      29.94R FOG
DES MOINES     DRIZZLE   46  43  89 E8        29.94R FOG
KIRKSVILLE     FOG       53  51  93 NE8       29.88S VSB 1/2
OTTUMWA        CLOUDY    45  45 100 NE10      29.92R FOG
ST LOUIS       CLOUDY    62  57  83 NW5       29.84F
$$


CITY           SKY/WX    TMP DP  RH WIND       PRES   REMARKS
TERRE HAUTE    CLOUDY    63  61  93 S5        29.86S FOG
EVANSVILLE     CLOUDY    63  62  97 SW3       29.89R
INDIANAPOLIS   CLOUDY    61  60  97 SW6       29.88R FOG
LAFAYETTE      CLOUDY    55  54  96 CALM      29.85S FOG
MADISON        CLOUDY    44  41  89 NE13      29.99F
MILWAUKEE      CLOUDY    44  41  89 NE16G24   29.97S
$$






USA.gov is the U.S. government's official web portal to all federal, state and local government web resources and services.